CAPE
0 0 0 0 0 3 2 40 3 33 37 83 0 99 163 337 265 146 432 566 648 936 933 1099 1294 1788 2342 2365 2545 2589 2546 2656
0 0 0 0 0 60 17 6 48 133 29 51 0 111 240 242 246 212 322 314 592 1071 1240 1378 1412 2002 2852 2668 1447 49 2234 2545
0 0 0 0 0 72 3 0 1 63 9 35 0 53 134 115 257 242 372 487 660 933 1022 1217 1427 2236 2363 2423 2284 2375 2771 2503
0 0 0 0 0 5 2 56 118 88 15 10 8 166 191 173 230 288 505 603 800 1053 1109 1357 997 606 1953 2087 2143 1487 2038 2207
0 0 2 6 0 1 8 28 149 81 72 74 239 278 130 202 152 340 632 751 1035 2297 2056 1770 1627 1266 1111 1067 544 347 7 163
0 1 21 47 49 37 102 150 148 35 377 52 64 196 118 94 275 514 841 876 2611 2397 2290 1691 1135 907 878 332 251 171 254 152
0 2 10 1 23 11 180 222 21 339 168 349 200 56 125 320 275 539 826 2526 2571 2321 1806 1572 1321 1134 665 249 282 224 390 359
0 14 0 0 0 68 70 263 403 186 83 31 89 84 184 238 204 287 282 2361 2458 1896 1569 1248 1128 866 480 400 408 365 186 124
0 0 0 7 16 1 140 242 212 55 31 24 24 45 60 22 24 0 378 1708 1794 1517 1263 1095 784 652 415 379 297 171 104 49
0 0 0 141 284 353 240 248 206 35 115 23 1 25 61 65 226 809 947 1782 1501 1072 1032 734 742 431 249 165 173 56 0 52
0 0 0 247 362 371 487 304 176 88 218 103 5 79 132 333 634 772 862 1257 1160 988 917 776 599 426 278 119 4 9 3 2
300 1 86 366 319 300 493 301 279 344 273 73 96 341 218 152 947 895 755 949 821 972 784 627 560 375 164 68 1 14 3 0
397 672 457 483 249 312 237 541 216 344 399 200 256 592 444 1088 1050 891 591 957 674 697 591 571 538 449 96 57 41 3 0 0
81 423 544 343 369 195 241 196 478 409 548 1452 1106 1026 1238 1466 1209 979 925 791 639 622 533 510 456 336 51 79 8 0 0 0
446 489 359 526 505 149 74 3 17 68 1295 1540 1528 1590 1418 1250 1062 803 686 629 578 517 472 478 347 109 76 1 0 0 0 0
396 399 587 100 68 171 79 21 143 457 992 1807 1719 1346 1253 1054 982 843 699 615 494 464 446 290 98 22 0 0 0 0 0 0
689 578 349 461 320 228 149 203 164 522 1520 1452 1252 1095 951 922 868 766 623 501 408 276 275 148 3 0 0 0 0 0 0 0
713 484 620 337 188 112 93 191 349 926 1021 1265 1147 1040 898 819 730 530 305 138 165 70 41 7 0 0 0 0 0 0 0 0
370 398 243 196 185 56 55 150 228 512 1463 1341 1189 1078 921 800 614 439 329 167 42 10 0 0 0 0 0 0 0 0 0 0
CIN
0 0 0 0 0 -14 -3 -12 -78 -67 -264 -320 0 -22 -38 -26 -23 -42 -23 -23 -36 -53 -4 -20 -37 -40 -76 -59 -41 -22 -21 -39
0 0 0 0 0 -11 -36 -8 -9 -125 -206 -328 -143 -90 -143 -14 -23 -35 -10 -20 -15 -14 -13 -12 -22 -37 -44 -41 -121 -166 -52 -32
0 0 0 0 0 -35 -22 -8 -4 -138 -148 -406 0 -355 -55 -15 -42 -44 -15 -14 -16 -9 -22 -13 -34 -18 -14 -26 -49 -60 -22 -42
0 0 0 0 0 -70 -8 -51 -96 -220 -281 -274 -188 -15 -12 -27 -12 -47 -10 -21 -24 -21 -19 -80 -106 -192 -19 -29 -17 -17 -58 -53
0 0 -3 -9 0 -6 -12 -9 -70 -119 -76 -134 -35 -50 -76 -370 -146 -20 -31 -18 -27 -123 -148 -90 -102 -43 -41 -44 -107 -230 -399 -275
0 -27 -146 -86 -26 -15 -29 -1 -106 -25 -202 -281 -404 -442 -24 -30 -24 -83 -31 -40 -105 -41 -36 -25 -33 -43 -47 -206 -290 -302 -277 -317
0 -242 -132 -12 -26 -39 -3 -3 -11 -104 -207 -223 -389 -108 -39 -414 -45 -24 -22 -94 -57 -36 -20 -18 -32 -40 -65 -354 -301 -298 -241 -242
0 -93 0 0 -10 -72 -19 -112 -24 -47 -73 -111 -210 -650 -31 -344 -126 -59 -46 -50 -43 -44 -18 -45 -41 -39 -298 -277 -257 -247 -298 -316
0 0 0 -109 -67 -2 -66 -87 -211 -225 -12 -33 -363 -648 -726 -746 -424 0 -50 -30 -27 -38 -55 -60 -112 -228 -264 -271 -263 -278 -284 -287
0 0 0 -68 -57 -170 -41 -70 -185 -107 -350 -34 -144 -371 -238 -182 -74 -73 -20 -16 -21 -65 -76 -103 -199 -92 -196 -275 -267 -158 0 -312
0 0 0 -67 -385 -226 -97 -166 -39 -123 -68 -44 -93 -269 -116 -67 -41 -79 -2 -43 -34 -128 -89 -95 -92 -166 -40 -46 -55 -279 -68 -7
-15 -5 -22 -315 -401 -299 -54 -122 -66 -96 -51 -51 -189 -154 -93 -335 -16 -219 -18 -47 -112 -86 -90 -178 -142 -77 -45 -59 -59 -87 -85 0
-29 -44 -256 -344 -181 -424 -77 -172 -120 -123 -80 -147 -16 -11 -331 -248 -151 -84 -42 -70 -80 -67 -121 -114 -110 -66 -51 -42 -76 -76 0 0
-20 -63 -50 -384 -350 -95 -298 -230 -95 -60 -91 -14 -34 -36 -43 -37 -57 -46 -49 -71 -71 -60 -104 -89 -89 -83 -58 -101 -11 0 0 0
-84 -81 -230 -280 -320 -467 -199 -186 -472 -416 -63 -24 -26 -14 -13 -26 -29 -56 -50 -73 -86 -88 -81 -99 -93 -80 -102 -9 0 0 0 0
-84 -118 -143 -323 -290 -98 -197 -11 -127 -197 -67 -13 -17 -33 -32 -42 -37 -41 -62 -50 -63 -98 -106 -93 -78 -108 0 0 0 0 0 0
-56 -104 -196 -148 -131 -85 -83 -59 -61 -38 -8 -15 -31 -65 -79 -80 -65 -56 -91 -105 -111 -102 -86 -115 -126 0 0 0 0 0 0 0
-62 -21 -62 -37 -46 -36 -44 -12 -14 -15 -18 -46 -40 -64 -112 -81 -102 -108 -139 -152 -101 -162 -197 -35 0 0 0 0 0 0 0 0
-64 -85 -39 -31 -42 -8 -53 -75 -60 -12 -28 -44 -35 -24 -59 -75 -82 -89 -108 -108 -158 -36 0 0 0 0 0 0 0 0 0 0
Wind_Speed
nan nan nan nan nan nan nan nan nan nan nan nan nan nan 17 22 10 8 11 8 10 8 10 9 15 12 13 7 4 5 10 10
nan nan nan nan nan nan nan nan nan 13 nan nan nan 23 15 25 8 3 3 4 4 6 7 1 3 3 10 12 16 nan 15 12
nan nan nan nan nan nan nan nan nan nan nan nan nan nan 20 28 7 5 3 2 1 1 2 6 7 6 6 7 13 11 8 6
nan nan nan nan nan nan nan nan 29 nan nan nan nan 3 12 24 37 9 4 3 4 1 8 13 4 6 3 8 11 8 8 8
nan nan nan nan nan nan nan nan 40 nan nan nan 19 19 14 39 21 22 8 8 5 11 13 19 14 3 4 7 6 8 nan 9
nan nan nan nan nan nan 23 17 35 nan 31 nan nan 21 16 nan 14 30 14 11 14 11 17 16 16 13 14 15 15 12 11 12
nan nan nan nan nan nan 19 9 nan 31 39 31 25 nan 30 28 30 35 33 22 15 17 21 15 17 22 20 20 19 18 18 17
nan nan nan nan nan nan nan 36 40 28 nan nan nan nan 29 47 38 31 30 7 21 28 21 14 21 21 21 22 20 21 20 18
nan nan nan nan nan nan 8 34 40 nan nan nan nan nan nan nan nan nan 19 7 27 24 22 22 23 23 22 26 24 24 23 nan
nan nan nan 27 31 31 35 10 34 nan 31 nan nan nan nan nan 29 20 7 20 23 21 23 24 28 28 28 26 25 nan nan nan
nan nan nan 27 31 31 35 38 26 nan 34 39 nan nan 28 24 24 13 3 26 18 19 23 26 30 30 30 28 nan nan nan nan
23 nan nan 22 29 28 20 40 49 32 35 nan nan 21 16 17 30 22 16 23 28 36 35 32 30 31 32 nan nan nan nan nan
28 32 29 32 28 28 41 35 34 35 37 25 23 24 23 34 40 30 26 33 36 38 35 33 34 32 nan nan nan nan nan nan
nan 40 38 32 32 36 35 35 45 43 37 46 25 16 32 37 42 46 43 41 40 41 39 34 32 36 nan nan nan nan nan nan
39 36 37 31 26 28 nan nan nan nan 25 30 39 34 39 43 46 45 40 32 34 35 37 35 37 39 nan nan nan nan nan nan
22 19 21 33 nan 23 nan nan 26 38 35 40 38 42 39 41 39 41 37 34 33 37 36 34 nan nan nan nan nan nan nan nan
21 25 25 25 12 5 6 10 10 10 26 34 36 35 36 39 37 34 35 35 36 41 39 39 nan nan nan nan nan nan nan nan
26 28 30 34 21 20 nan 22 19 21 27 37 38 38 36 40 40 42 44 43 43 nan nan nan nan nan nan nan nan nan nan nan
25 25 28 26 25 nan nan 25 24 22 29 37 40 42 39 42 40 44 42 43 nan nan nan nan nan nan nan nan nan nan nan nan
Wind_Direction
nan nan nan nan nan nan nan nan nan nan nan nan nan nan 197 185 327 4 357 20 26 26 47 47 25 29 6 0 15 116 47 24
nan nan nan nan nan nan nan nan nan 292 nan nan nan 214 188 166 317 322 329 349 356 6 20 10 36 46 323 25 314 nan 65 18
nan nan nan nan nan nan nan nan nan nan nan nan nan nan 134 156 352 307 276 287 21 52 341 246 212 163 308 330 354 26 342 335
nan nan nan nan nan nan nan nan 284 nan nan nan nan 116 180 139 167 297 256 209 205 214 242 293 83 37 309 326 333 345 330 347
nan nan nan nan nan nan nan nan 292 nan nan nan 356 326 273 233 151 136 257 249 221 236 268 290 297 297 302 281 312 325 nan 316
nan nan nan nan nan nan 220 254 290 nan 320 nan nan 352 281 nan 139 164 147 266 251 247 259 272 285 294 288 282 270 267 271 272
nan nan nan nan nan nan 216 250 nan 286 291 293 312 nan 293 260 236 174 167 259 275 262 244 241 273 275 270 267 268 267 264 271
nan nan nan nan nan nan nan 259 259 258 nan nan nan nan 295 297 289 210 162 230 280 279 271 285 270 276 282 283 284 285 283 283
nan nan nan nan nan nan 251 288 294 nan nan nan nan nan nan nan nan nan 137 276 270 274 275 283 288 284 282 281 286 287 289 nan
nan nan nan 227 215 230 271 266 266 nan 298 nan nan nan nan nan 337 316 168 282 280 282 281 291 288 288 285 283 287 nan nan nan
nan nan nan 215 210 224 242 262 246 nan 277 296 nan nan 351 33 337 326 102 282 272 280 291 280 283 279 282 287 nan nan nan nan
224 nan nan 223 204 208 247 260 247 246 254 nan nan 311 317 323 304 283 250 293 290 290 284 276 272 275 277 nan nan nan nan nan
215 228 225 217 218 215 237 249 234 263 277 334 303 278 252 279 285 299 284 292 288 293 288 278 275 277 nan nan nan nan nan nan
nan 229 228 240 228 248 259 253 249 237 242 276 241 273 290 280 293 295 293 280 277 280 281 278 276 279 nan nan nan nan nan nan
228 237 247 247 270 274 nan nan nan nan 274 270 285 282 277 280 282 283 294 292 278 276 272 271 273 275 nan nan nan nan nan nan
224 244 256 262 nan 271 nan nan 254 262 272 262 276 282 272 274 276 274 282 282 284 283 286 286 nan nan nan nan nan nan nan nan
259 264 235 257 251 318 247 205 262 273 268 263 264 276 284 287 288 289 287 287 284 283 285 284 nan nan nan nan nan nan nan nan
283 282 283 280 256 258 nan 265 253 259 258 277 275 275 273 273 275 278 281 284 286 nan nan nan nan nan nan nan nan nan nan nan
274 275 279 280 278 nan nan 250 257 270 275 272 271 276 272 275 275 278 278 279 nan nan nan nan nan nan nan nan nan nan nan nan